| time (UTC) | temp C | wind direction | speed KPH | gust KPH | rain 1hr cm | rain 24hr cm | rain mn cm | humidity % | barometer mb |
| 20260905223504 | 14 | 264 | 1.6 | 1.6 | 0.00 | 0.58 | 0.00 | 68 | 1023.2 |
| 20260905223008 | 15 | 264 | 1.6 | 3.2 | 0.00 | 0.58 | 0.00 | 68 | 1023.3 |
| 20260905222503 | 14 | 263 | 3.2 | 4.8 | 0.00 | 0.58 | 0.00 | 69 | 1023.3 |
| 20260905222004 | 15 | 228 | 1.6 | 3.2 | 0.00 | 0.58 | 0.00 | 69 | 1023.2 |
| 20260905221504 | 15 | 228 | 0.0 | 3.2 | 0.00 | 0.58 | 0.00 | 68 | 1023.0 |
| 20260905221009 | 15 | 228 | 0.0 | 3.2 | 0.00 | 0.58 | 0.00 | 68 | 1023.1 |
| 20260905220506 | 15 | 228 | 0.0 | 3.2 | 0.00 | 0.58 | 0.00 | 68 | 1023.1 |
| 20260905220009 | 15 | 228 | 1.6 | 1.6 | 0.58 | 0.58 | 0.58 | 68 | 1023.1 |
| 20260905215508 | 15 | 228 | 0.0 | 1.6 | 0.58 | 0.58 | 0.58 | 67 | 1022.9 |
| 20260905215003 | 15 | 228 | 0.0 | 1.6 | 0.58 | 0.58 | 0.58 | 67 | 1022.9 |
| 20260905214508 | 15 | 228 | 0.0 | 1.6 | 0.58 | 0.58 | 0.58 | 66 | 1022.8 |
| 20260905214003 | 15 | 242 | 1.6 | 1.6 | 0.58 | 0.58 | 0.58 | 66 | 1022.8 |
| 20260905213510 | 15 | 242 | 1.6 | 1.6 | 0.58 | 0.58 | 0.58 | 66 | 1022.7 |
| 20260905213003 | 15 | 242 | 0.0 | 0.0 | 0.58 | 0.58 | 0.58 | 65 | 1022.7 |
| 20260905212504 | 16 | 242 | 0.0 | 1.6 | 0.58 | 0.58 | 0.58 | 65 | 1022.6 |
| 20260905212003 | 16 | 258 | 0.0 | 1.6 | 0.58 | 0.58 | 0.58 | 63 | 1022.5 |
| 20260905211503 | 16 | 258 | 0.0 | 3.2 | 0.58 | 0.58 | 0.58 | 63 | 1022.5 |
| 20260905211002 | 16 | 254 | 0.0 | 0.0 | 0.58 | 0.58 | 0.58 | 63 | 1022.2 |
| 20260905210502 | 16 | 254 | 0.0 | 1.6 | 0.58 | 0.58 | 0.58 | 62 | 1022.2 |
| 20260905210003 | 16 | 254 | 0.0 | 0.0 | 0.00 | 0.58 | 0.58 | 63 | 1022.2 |
| 20260905205503 | 16 | 254 | 0.0 | 1.6 | 0.00 | 0.58 | 0.58 | 62 | 1022.2 |
| 20260905205009 | 16 | 254 | 0.0 | 3.2 | 0.00 | 0.58 | 0.58 | 62 | 1022.1 |
| 20260905204503 | 16 | 246 | 0.0 | 3.2 | 0.00 | 0.58 | 0.58 | 63 | 1022.1 |
| 20260905204007 | 16 | 246 | 0.0 | 3.2 | 0.00 | 0.58 | 0.58 | 63 | 1022.1 |
| 20260905203503 | 16 | 234 | 0.0 | 3.2 | 0.00 | 0.58 | 0.58 | 66 | 1021.9 |
| 20260905203004 | 16 | 218 | 0.0 | 1.6 | 0.00 | 0.58 | 0.58 | 66 | 1022.0 |
| 20260905202503 | 17 | 218 | 0.0 | 3.2 | 0.00 | 0.58 | 0.58 | 64 | 1022.0 |
| 20260905202003 | 17 | 256 | 0.0 | 3.2 | 0.00 | 0.58 | 0.58 | 65 | 1021.9 |
| 20260905201504 | 17 | 253 | 1.6 | 1.6 | 0.00 | 0.58 | 0.58 | 63 | 1021.7 |
| 20260905201004 | 17 | 251 | 1.6 | 3.2 | 0.00 | 0.58 | 0.58 | 63 | 1021.6 |
| 20260905200503 | 17 | 277 | 0.0 | 3.2 | 0.00 | 0.58 | 0.58 | 64 | 1021.6 |
| 20260905200004 | 17 | 263 | 0.0 | 3.2 | 0.00 | 0.58 | 0.58 | 63 | 1021.5 |
| 20260905195508 | 17 | 263 | 0.0 | 1.6 | 0.00 | 0.58 | 0.58 | 63 | 1021.4 |
| 20260905195005 | 17 | 268 | 0.0 | 0.0 | 0.00 | 0.58 | 0.58 | 62 | 1021.2 |
| 20260905194508 | 17 | 261 | 0.0 | 0.0 | 0.00 | 0.58 | 0.58 | 62 | 1021.2 |
| 20260905194003 | 17 | 261 | 0.0 | 1.6 | 0.00 | 0.58 | 0.58 | 60 | 1021.0 |
| 20260905193504 | 18 | 264 | 0.0 | 1.6 | 0.00 | 0.58 | 0.58 | 59 | 1020.9 |
| 20260905193004 | 18 | 262 | 4.8 | 6.4 | 0.00 | 0.58 | 0.58 | 58 | 1020.8 |
| 20260905192507 | 18 | 268 | 3.2 | 8.0 | 0.00 | 0.58 | 0.58 | 58 | 1020.6 |
| 20260905192004 | 18 | 271 | 0.0 | 9.7 | 0.00 | 0.58 | 0.58 | 59 | 1020.5 |
| 20260905191508 | 18 | 222 | 1.6 | 8.0 | 0.00 | 0.58 | 0.58 | 58 | 1020.5 |
| 20260905191005 | 18 | 255 | 4.8 | 8.0 | 0.00 | 0.58 | 0.58 | 59 | 1020.4 |
| 20260905190503 | 18 | 258 | 4.8 | 11.3 | 0.00 | 0.58 | 0.58 | 60 | 1020.3 |
| 20260905190007 | 18 | 270 | 1.6 | 8.0 | 0.00 | 0.58 | 0.58 | 61 | 1020.3 |
| 20260905185504 | 18 | 266 | 0.0 | 6.4 | 0.00 | 0.58 | 0.58 | 62 | 1020.3 |
| 20260905185004 | 18 | 266 | 0.0 | 6.4 | 0.00 | 0.58 | 0.58 | 62 | 1020.4 |
| 20260905184506 | 18 | 234 | 3.2 | 3.2 | 0.00 | 0.58 | 0.58 | 63 | 1020.3 |
| 20260905184004 | 18 | 234 | 3.2 | 3.2 | 0.00 | 0.58 | 0.58 | 63 | 1020.3 |
| 20260905183502 | 18 | 234 | 3.2 | 3.2 | 0.00 | 0.58 | 0.58 | 63 | 1020.1 |
| 20260905183006 | 18 | 233 | 0.0 | 1.6 | 0.00 | 0.58 | 0.58 | 63 | 1020.0 |
| 20260905182505 | 18 | 234 | 1.6 | 1.6 | 0.00 | 0.58 | 0.58 | 63 | 1019.9 |
| 20260905182004 | 18 | 234 | 4.8 | 4.8 | 0.00 | 0.58 | 0.58 | 62 | 1019.8 |
| 20260905181504 | 18 | 240 | 0.0 | 1.6 | 0.00 | 0.58 | 0.58 | 63 | 1019.7 |
| 20260905181006 | 18 | 240 | 0.0 | 1.6 | 0.00 | 0.58 | 0.58 | 62 | 1019.6 |
| 20260905180506 | 18 | 240 | 0.0 | 1.6 | 0.00 | 0.58 | 0.58 | 62 | 1019.5 |
| 20260905180004 | 18 | 240 | 1.6 | 1.6 | 0.00 | 0.58 | 0.58 | 61 | 1019.5 |
| 20260905175505 | 18 | 240 | 1.6 | 3.2 | 0.00 | 0.58 | 0.58 | 61 | 1019.3 |
| 20260905175002 | 19 | 240 | 3.2 | 3.2 | 0.00 | 0.58 | 0.58 | 61 | 1019.2 |
| 20260905174504 | 19 | 252 | 0.0 | 4.8 | 0.00 | 0.58 | 0.58 | 61 | 1019.2 |
| 20260905174003 | 19 | 264 | 1.6 | 4.8 | 0.00 | 0.58 | 0.58 | 61 | 1019.1 |
| 20260905173503 | 19 | 264 | 0.0 | 9.7 | 0.00 | 0.58 | 0.58 | 60 | 1019.0 |
| 20260905173002 | 19 | 272 | 8.0 | 9.7 | 0.00 | 0.58 | 0.58 | 59 | 1018.9 |
| 20260905172505 | 20 | 275 | 1.6 | 6.4 | 0.00 | 0.58 | 0.58 | 59 | 1018.9 |
| 20260905172004 | 20 | 254 | 3.2 | 8.0 | 0.00 | 0.58 | 0.58 | 59 | 1018.8 |
| 20260905171505 | 20 | 263 | 1.6 | 11.3 | 0.00 | 0.58 | 0.58 | 59 | 1018.6 |
| 20260905171004 | 20 | 5 | 1.6 | 4.8 | 0.00 | 0.58 | 0.58 | 60 | 1018.6 |
| 20260905170503 | 20 | 223 | 6.4 | 11.3 | 0.00 | 0.58 | 0.58 | 59 | 1018.5 |
| 20260905170007 | 20 | 213 | 1.6 | 4.8 | 0.00 | 0.58 | 0.58 | 58 | 1018.4 |
| 20260905165504 | 20 | 213 | 3.2 | 12.9 | 0.00 | 0.58 | 0.58 | 57 | 1018.4 |
| 20260905165002 | 20 | 252 | 8.0 | 9.7 | 0.00 | 0.58 | 0.58 | 57 | 1018.4 |
| 20260905164502 | 20 | 275 | 1.6 | 14.5 | 0.00 | 0.58 | 0.58 | 57 | 1018.4 |
| 20260905164003 | 20 | 264 | 1.6 | 9.7 | 0.00 | 0.58 | 0.58 | 57 | 1018.2 |
| 20260905163506 | 20 | 278 | 1.6 | 12.9 | 0.00 | 0.58 | 0.58 | 57 | 1018.3 |
| 20260905163004 | 20 | 262 | 4.8 | 12.9 | 0.00 | 0.58 | 0.58 | 57 | 1018.2 |
| 20260905162504 | 21 | 240 | 6.4 | 19.3 | 0.00 | 0.58 | 0.58 | 55 | 1018.2 |
| 20260905162004 | 21 | 252 | 8.0 | 12.9 | 0.00 | 0.58 | 0.58 | 54 | 1018.1 |
| 20260905161503 | 21 | 234 | 1.6 | 11.3 | 0.00 | 0.58 | 0.58 | 54 | 1018.0 |
| 20260905161004 | 21 | 247 | 3.2 | 11.3 | 0.00 | 0.58 | 0.58 | 54 | 1017.9 |
| 20260905160504 | 21 | 274 | 14.5 | 16.1 | 0.00 | 0.58 | 0.58 | 52 | 1017.8 |
| 20260905160006 | 21 | 264 | 4.8 | 12.9 | 0.00 | 0.58 | 0.58 | 54 | 1017.9 |
| 20260905155504 | 20 | 258 | 0.0 | 12.9 | 0.00 | 0.58 | 0.58 | 56 | 1018.0 |
| 20260905155005 | 20 | 254 | 0.0 | 9.7 | 0.00 | 0.58 | 0.58 | 56 | 1018.0 |
| 20260905154504 | 21 | 270 | 8.0 | 12.9 | 0.00 | 0.58 | 0.58 | 54 | 1017.8 |
| 20260905154003 | 21 | 274 | 9.7 | 12.9 | 0.00 | 0.58 | 0.58 | 52 | 1017.7 |
| 20260905153508 | 22 | 276 | 12.9 | 20.9 | 0.00 | 0.58 | 0.58 | 51 | 1017.7 |
| 20260905153006 | 22 | 276 | 4.8 | 16.1 | 0.00 | 0.58 | 0.58 | 50 | 1017.7 |
| 20260905152503 | 22 | 259 | 11.3 | 11.3 | 0.00 | 0.58 | 0.58 | 50 | 1017.7 |
| 20260905152007 | 22 | 199 | 11.3 | 12.9 | 0.00 | 0.58 | 0.58 | 51 | 1017.6 |
| 20260905151502 | 22 | 252 | 9.7 | 11.3 | 0.00 | 0.58 | 0.58 | 51 | 1017.6 |
| 20260905151003 | 22 | 202 | 3.2 | 8.0 | 0.00 | 0.58 | 0.58 | 52 | 1017.6 |
| 20260905150503 | 22 | 258 | 0.0 | 22.5 | 0.00 | 0.58 | 0.58 | 53 | 1017.7 |
| 20260905150004 | 21 | 304 | 12.9 | 17.7 | 0.00 | 0.58 | 0.58 | 50 | 1017.6 |
| 20260905145505 | 21 | 274 | 1.6 | 19.3 | 0.00 | 0.58 | 0.58 | 52 | 1017.7 |
| 20260905145003 | 21 | 255 | 3.2 | 17.7 | 0.00 | 0.58 | 0.58 | 52 | 1017.7 |
| 20260905144504 | 21 | 318 | 11.3 | 22.5 | 0.00 | 0.58 | 0.58 | 52 | 1017.7 |
| 20260905144003 | 21 | 312 | 4.8 | 24.1 | 0.00 | 0.58 | 0.58 | 52 | 1017.7 |
| 20260905143502 | 21 | 222 | 14.5 | 27.4 | 0.00 | 0.58 | 0.58 | 50 | 1017.7 |
| 20260905143007 | 21 | 304 | 14.5 | 20.9 | 0.00 | 0.58 | 0.58 | 51 | 1017.9 |
| 20260905142505 | 22 | 266 | 11.3 | 22.5 | 0.00 | 0.58 | 0.58 | 51 | 1017.8 |
| 20260905142003 | 21 | 258 | 3.2 | 12.9 | 0.00 | 0.58 | 0.58 | 52 | 1018.0 |
| 20260905141505 | 21 | 259 | 12.9 | 17.7 | 0.00 | 0.58 | 0.58 | 52 | 1018.0 |
| 20260905141003 | 21 | 234 | 11.3 | 27.4 | 0.00 | 0.58 | 0.58 | 53 | 1018.1 |
| 20260905140503 | 21 | 264 | 1.6 | 14.5 | 0.00 | 0.58 | 0.58 | 52 | 1018.1 |
| 20260905140004 | 20 | 249 | 6.4 | 20.9 | 0.00 | 0.58 | 0.58 | 53 | 1018.2 |
| 20260905135505 | 21 | 197 | 17.7 | 20.9 | 0.00 | 0.58 | 0.58 | 53 | 1018.0 |
| 20260905135003 | 21 | 276 | 14.5 | 14.5 | 0.00 | 0.58 | 0.58 | 53 | 1018.1 |
| 20260905134504 | 21 | 288 | 9.7 | 20.9 | 0.00 | 0.58 | 0.58 | 51 | 1018.1 |
| 20260905134003 | 21 | 242 | 3.2 | 17.7 | 0.00 | 0.58 | 0.58 | 55 | 1018.1 |
| 20260905133503 | 21 | 288 | 12.9 | 24.1 | 0.00 | 0.58 | 0.58 | 54 | 1018.1 |
| 20260905133003 | 21 | 234 | 9.7 | 19.3 | 0.00 | 0.58 | 0.58 | 53 | 1018.1 |
| 20260905132503 | 21 | 331 | 4.8 | 16.1 | 0.00 | 0.58 | 0.58 | 53 | 1018.2 |
| 20260905132003 | 21 | 276 | 14.5 | 24.1 | 0.00 | 0.58 | 0.58 | 54 | 1018.2 |
| 20260905131504 | 21 | 264 | 20.9 | 22.5 | 0.00 | 0.58 | 0.58 | 52 | 1018.3 |
| 20260905131006 | 21 | 230 | 9.7 | 14.5 | 0.00 | 0.58 | 0.58 | 54 | 1018.3 |
| 20260905130503 | 20 | 242 | 3.2 | 24.1 | 0.00 | 0.58 | 0.58 | 55 | 1018.5 |
| 20260905130003 | 21 | 240 | 3.2 | 19.3 | 0.00 | 0.58 | 0.58 | 57 | 1018.5 |
| 20260905125504 | 20 | 270 | 12.9 | 14.5 | 0.00 | 0.58 | 0.58 | 56 | 1018.5 |
| 20260905125005 | 20 | 252 | 9.7 | 30.6 | 0.00 | 0.58 | 0.58 | 58 | 1018.6 |
| 20260905124508 | 20 | 258 | 8.0 | 17.7 | 0.00 | 0.58 | 0.58 | 58 | 1018.5 |
| 20260905124003 | 20 | 276 | 12.9 | 12.9 | 0.00 | 0.58 | 0.58 | 61 | 1018.5 |
| 20260905123503 | 20 | 288 | 4.8 | 11.3 | 0.00 | 0.58 | 0.58 | 60 | 1018.5 |
| 20260905123006 | 20 | 246 | 11.3 | 12.9 | 0.00 | 0.58 | 0.58 | 60 | 1018.7 |
| 20260905122504 | 19 | 255 | 3.2 | 19.3 | 0.00 | 0.58 | 0.58 | 66 | 1018.9 |
| 20260905122004 | 19 | 280 | 14.5 | 14.5 | 0.00 | 0.58 | 0.58 | 64 | 1019.0 |
| 20260905121503 | 19 | 245 | 1.6 | 14.5 | 0.00 | 0.58 | 0.58 | 64 | 1019.0 |
| 20260905121006 | 19 | 292 | 4.8 | 14.5 | 0.00 | 0.58 | 0.58 | 64 | 1019.0 |
| 20260905120505 | 19 | 270 | 8.0 | 25.7 | 0.00 | 0.58 | 0.58 | 63 | 1019.1 |
| 20260905120003 | 19 | 244 | 9.7 | 12.9 | 0.00 | 0.58 | 0.58 | 65 | 1019.1 |
| 20260905115502 | 19 | 246 | 9.7 | 22.5 | 0.00 | 0.58 | 0.58 | 62 | 1019.0 |
| 20260905115005 | 20 | 275 | 3.2 | 11.3 | 0.00 | 0.58 | 0.58 | 63 | 1018.8 |
| 20260905114504 | 20 | 294 | 1.6 | 14.5 | 0.00 | 0.58 | 0.58 | 62 | 1018.6 |
| 20260905114003 | 19 | 266 | 4.8 | 12.9 | 0.00 | 0.58 | 0.58 | 65 | 1018.7 |
| 20260905113504 | 19 | 276 | 1.6 | 14.5 | 0.00 | 0.58 | 0.58 | 65 | 1018.8 |
| 20260905113004 | 20 | 234 | 4.8 | 12.9 | 0.00 | 0.58 | 0.58 | 64 | 1018.8 |
| 20260905112503 | 20 | 281 | 1.6 | 4.8 | 0.00 | 0.58 | 0.58 | 64 | 1018.7 |
| 20260905112004 | 20 | 246 | 1.6 | 8.0 | 0.00 | 0.58 | 0.58 | 62 | 1018.6 |
| 20260905111504 | 20 | 282 | 1.6 | 4.8 | 0.00 | 0.58 | 0.58 | 64 | 1018.6 |
| 20260905111004 | 19 | 265 | 3.2 | 9.7 | 0.00 | 0.58 | 0.58 | 64 | 1018.8 |
| 20260905110504 | 19 | 276 | 6.4 | 11.3 | 0.00 | 0.58 | 0.58 | 67 | 1019.0 |
| 20260905110002 | 18 | 240 | 3.2 | 17.7 | 0.00 | 0.58 | 0.58 | 64 | 1019.0 |
| 20260905105504 | 19 | 276 | 6.4 | 12.9 | 0.00 | 0.58 | 0.58 | 65 | 1018.9 |
| 20260905105003 | 20 | 270 | 3.2 | 16.1 | 0.00 | 0.58 | 0.58 | 64 | 1018.8 |
| 20260905104506 | 20 | 246 | 14.5 | 19.3 | 0.00 | 0.58 | 0.58 | 62 | 1018.8 |
| 20260905104003 | 19 | 220 | 3.2 | 12.9 | 0.00 | 0.58 | 0.58 | 62 | 1018.9 |
| 20260905103506 | 19 | 264 | 20.9 | 24.1 | 0.00 | 0.58 | 0.58 | 62 | 1019.0 |
| 20260905103003 | 18 | 252 | 3.2 | 12.9 | 0.00 | 0.58 | 0.58 | 64 | 1019.2 |
| 20260905102505 | 18 | 259 | 1.6 | 14.5 | 0.00 | 0.58 | 0.58 | 67 | 1019.3 |
| 20260905102004 | 18 | 282 | 6.4 | 8.0 | 0.00 | 0.58 | 0.58 | 68 | 1019.2 |
| 20260905101503 | 18 | 252 | 0.0 | 6.4 | 0.00 | 0.58 | 0.58 | 67 | 1019.2 |
| 20260905101004 | 17 | 258 | 1.6 | 4.8 | 0.00 | 0.58 | 0.58 | 67 | 1019.3 |
| 20260905100503 | 17 | 228 | 1.6 | 4.8 | 0.00 | 0.58 | 0.58 | 70 | 1019.5 |
| 20260905100003 | 17 | 294 | 3.2 | 4.8 | 0.00 | 0.58 | 0.58 | 69 | 1019.5 |
| 20260905095502 | 17 | 237 | 3.2 | 19.3 | 0.00 | 0.58 | 0.58 | 71 | 1019.5 |
| 20260905095004 | 17 | 241 | 11.3 | 16.1 | 0.00 | 0.58 | 0.58 | 73 | 1019.6 |
| 20260905094503 | 17 | 234 | 3.2 | 20.9 | 0.00 | 0.58 | 0.58 | 72 | 1019.6 |
| 20260905094004 | 17 | 242 | 1.6 | 12.9 | 0.00 | 0.58 | 0.58 | 72 | 1019.6 |
| 20260905093504 | 17 | 264 | 1.6 | 17.7 | 0.00 | 0.58 | 0.58 | 75 | 1019.6 |
| 20260905093002 | 17 | 271 | 1.6 | 3.2 | 0.00 | 0.58 | 0.58 | 78 | 1019.7 |
| 20260905092502 | 16 | 264 | 3.2 | 9.7 | 0.00 | 0.58 | 0.58 | 80 | 1019.8 |
| 20260905092004 | 16 | 252 | 3.2 | 11.3 | 0.00 | 0.58 | 0.58 | 78 | 1019.8 |
| 20260905091504 | 16 | 249 | 8.0 | 12.9 | 0.00 | 0.58 | 0.58 | 80 | 1019.8 |
| 20260905091005 | 16 | 276 | 9.7 | 16.1 | 0.00 | 0.58 | 0.58 | 80 | 1019.7 |
| 20260905090505 | 16 | 240 | 14.5 | 17.7 | 0.00 | 0.58 | 0.58 | 80 | 1019.8 |
| 20260905090005 | 16 | 253 | 1.6 | 14.5 | 0.00 | 0.58 | 0.58 | 84 | 1019.8 |
| 20260905085505 | 16 | 264 | 3.2 | 4.8 | 0.00 | 0.58 | 0.58 | 81 | 1019.7 |
| 20260905085004 | 16 | 266 | 1.6 | 3.2 | 0.00 | 0.58 | 0.58 | 83 | 1019.7 |
| 20260905084502 | 16 | 186 | 3.2 | 12.9 | 0.00 | 0.58 | 0.58 | 83 | 1019.6 |
| 20260905084004 | 16 | 270 | 0.0 | 11.3 | 0.00 | 0.58 | 0.58 | 87 | 1019.6 |
| 20260905083504 | 15 | 240 | 4.8 | 9.7 | 0.00 | 0.58 | 0.58 | 88 | 1019.8 |
| 20260905083003 | 15 | 228 | 0.0 | 3.2 | 0.00 | 0.58 | 0.58 | 88 | 1019.8 |
| 20260905082505 | 15 | 234 | 1.6 | 14.5 | 0.00 | 0.58 | 0.58 | 89 | 1019.7 |
| 20260905082003 | 15 | 248 | 3.2 | 4.8 | 0.00 | 0.58 | 0.58 | 89 | 1019.6 |
| 20260905081505 | 15 | 228 | 3.2 | 4.8 | 0.00 | 0.58 | 0.58 | 90 | 1019.7 |
| 20260905081005 | 14 | 253 | 1.6 | 3.2 | 0.00 | 0.58 | 0.58 | 92 | 1019.6 |
| 20260905080505 | 14 | 263 | 3.2 | 3.2 | 0.00 | 0.58 | 0.58 | 93 | 1019.8 |
| 20260905080002 | 14 | 269 | 0.0 | 9.7 | 0.00 | 0.58 | 0.58 | 94 | 1019.8 |
| 20260905075503 | 13 | 252 | 3.2 | 6.4 | 0.00 | 0.58 | 0.58 | 93 | 1019.9 |
| 20260905075004 | 13 | 232 | 0.0 | 6.4 | 0.00 | 0.58 | 0.58 | 94 | 1019.9 |
| 20260905074503 | 13 | 282 | 4.8 | 9.7 | 0.00 | 0.58 | 0.58 | 94 | 1019.7 |
| 20260905074006 | 13 | 213 | 0.0 | 3.2 | 0.00 | 0.58 | 0.58 | 95 | 1019.6 |
| 20260905073505 | 13 | 213 | 1.6 | 1.6 | 0.00 | 0.58 | 0.58 | 96 | 1019.6 |
| 20260905073004 | 13 | 213 | 0.0 | 9.7 | 0.00 | 0.58 | 0.58 | 95 | 1019.5 |
| 20260905072504 | 13 | 266 | 3.2 | 3.2 | 0.03 | 0.58 | 0.58 | 95 | 1019.2 |
| 20260905072005 | 13 | 298 | 0.0 | 3.2 | 0.03 | 0.58 | 0.58 | 96 | 1019.0 |
| 20260905071503 | 13 | 300 | 0.0 | 0.0 | 0.03 | 0.58 | 0.58 | 97 | 1018.9 |
| 20260905071005 | 13 | 300 | 0.0 | 3.2 | 0.05 | 0.58 | 0.58 | 97 | 1019.0 |
| 20260905070503 | 13 | 306 | 3.2 | 11.3 | 0.08 | 0.58 | 0.58 | 97 | 1019.0 |
| 20260905070002 | 13 | 228 | 0.0 | 9.7 | 0.08 | 0.58 | 0.58 | 97 | 1019.2 |
| 20260905065504 | 13 | 244 | 4.8 | 8.0 | 0.08 | 0.58 | 0.58 | 97 | 1019.2 |
| 20260905065005 | 13 | 150 | 0.0 | 3.2 | 0.10 | 0.58 | 0.58 | 97 | 1018.9 |
| 20260905064506 | 13 | 264 | 4.8 | 4.8 | 0.13 | 0.58 | 0.58 | 97 | 1019.3 |
| 20260905064004 | 13 | 186 | 1.6 | 8.0 | 0.15 | 0.58 | 0.58 | 97 | 1018.9 |
| 20260905063502 | 13 | 180 | 11.3 | 11.3 | 0.18 | 0.58 | 0.58 | 97 | 1018.5 |
| 20260905063002 | 13 | 228 | 0.0 | 4.8 | 0.20 | 0.58 | 0.58 | 97 | 1019.2 |
| 20260905062505 | 13 | 254 | 0.0 | 0.0 | 0.20 | 0.56 | 0.56 | 97 | 1019.2 |
| 20260905062004 | 13 | 266 | 0.0 | 1.6 | 0.23 | 0.56 | 0.56 | 97 | 1019.1 |
| 20260905061504 | 13 | 272 | 0.0 | 1.6 | 0.25 | 0.56 | 0.56 | 97 | 1019.2 |
| 20260905061005 | 13 | 168 | 1.6 | 3.2 | 0.25 | 0.53 | 0.53 | 97 | 1019.0 |
| 20260905060503 | 13 | 174 | 0.0 | 3.2 | 0.28 | 0.53 | 0.53 | 97 | 1019.1 |
| 20260905060003 | 13 | 174 | 0.0 | 3.2 | 0.28 | 0.51 | 0.51 | 97 | 1019.3 |
| 20260905055503 | 13 | 192 | 0.0 | 3.2 | 0.28 | 0.51 | 0.51 | 97 | 1019.1 |
| 20260905055009 | 13 | 257 | 0.0 | 0.0 | 0.28 | 0.48 | 0.48 | 97 | 1019.2 |
| 20260905054503 | 13 | 257 | 0.0 | 0.0 | 0.28 | 0.46 | 0.46 | 97 | 1019.4 |
| 20260905054008 | 13 | 257 | 0.0 | 0.0 | 0.28 | 0.43 | 0.43 | 97 | 1019.6 |
| 20260905053502 | 13 | 184 | 0.0 | 1.6 | 0.28 | 0.41 | 0.41 | 97 | 1019.8 |
| 20260905053003 | 13 | 277 | 0.0 | 0.0 | 0.25 | 0.38 | 0.38 | 97 | 1019.7 |
| 20260905052502 | 13 | 277 | 0.0 | 0.0 | 0.23 | 0.36 | 0.36 | 96 | 1019.6 |
| 20260905052003 | 13 | 277 | 0.0 | 0.0 | 0.20 | 0.33 | 0.33 | 96 | 1019.4 |
| 20260905051503 | 13 | 277 | 0.0 | 0.0 | 0.18 | 0.30 | 0.30 | 96 | 1019.4 |
| 20260905051003 | 13 | 277 | 0.0 | 0.0 | 0.15 | 0.28 | 0.28 | 95 | 1019.0 |
| 20260905050510 | 13 | 277 | 0.0 | 0.0 | 0.13 | 0.25 | 0.25 | 95 | 1018.9 |
| 20260905050003 | 13 | 278 | 0.0 | 1.6 | 0.10 | 0.23 | 0.23 | 94 | 1019.1 |
| 20260905045506 | 13 | 279 | 0.0 | 1.6 | 0.10 | 0.23 | 0.23 | 93 | 1018.8 |
| 20260905045003 | 13 | 279 | 0.0 | 0.0 | 0.08 | 0.20 | 0.20 | 93 | 1018.8 |
| 20260905044508 | 13 | 279 | 0.0 | 0.0 | 0.05 | 0.18 | 0.18 | 94 | 1018.9 |
| 20260905044004 | 13 | 279 | 0.0 | 0.0 | 0.03 | 0.15 | 0.15 | 94 | 1018.7 |
| 20260905043510 | 13 | 279 | 0.0 | 0.0 | 0.03 | 0.13 | 0.13 | 93 | 1018.4 |
| 20260905043004 | 13 | 279 | 0.0 | 0.0 | 0.03 | 0.13 | 0.13 | 93 | 1018.0 |
| 20260905042505 | 14 | 279 | 0.0 | 0.0 | 0.03 | 0.13 | 0.13 | 91 | 1017.8 |
| 20260905042007 | 14 | 279 | 0.0 | 0.0 | 0.05 | 0.13 | 0.13 | 90 | 1017.6 |
| 20260905041505 | 14 | 279 | 0.0 | 0.0 | 0.10 | 0.13 | 0.13 | 90 | 1018.0 |
| 20260905041008 | 14 | 279 | 0.0 | 0.0 | 0.13 | 0.13 | 0.13 | 90 | 1018.4 |
| 20260905040503 | 14 | 279 | 0.0 | 0.0 | 0.13 | 0.13 | 0.13 | 90 | 1018.3 |
| 20260905040008 | 14 | 279 | 0.0 | 0.0 | 0.13 | 0.13 | 0.13 | 88 | 1018.0 |
| 20260905035503 | 14 | 288 | 0.0 | 0.0 | 0.13 | 0.13 | 0.13 | 89 | 1017.8 |
| 20260905035009 | 14 | 288 | 0.0 | 0.0 | 0.13 | 0.13 | 0.13 | 89 | 1017.7 |
| 20260905034503 | 14 | 288 | 0.0 | 0.0 | 0.13 | 0.13 | 0.13 | 87 | 1017.3 |
| 20260905034004 | 14 | 288 | 0.0 | 0.0 | 0.13 | 0.13 | 0.13 | 85 | 1017.1 |
| 20260905033504 | 14 | 288 | 0.0 | 0.0 | 0.10 | 0.10 | 0.10 | 89 | 1017.5 |
| 20260905033004 | 14 | 288 | 0.0 | 1.6 | 0.10 | 0.10 | 0.10 | 88 | 1017.3 |
| 20260905032509 | 15 | 288 | 0.0 | 0.0 | 0.10 | 0.10 | 0.10 | 86 | 1016.9 |
| 20260905032003 | 15 | 288 | 0.0 | 9.7 | 0.08 | 0.08 | 0.08 | 83 | 1017.0 |
| 20260905031503 | 16 | 270 | 0.0 | 1.6 | 0.03 | 0.03 | 0.03 | 79 | 1016.9 |
| 20260905031008 | 16 | 270 | 0.0 | 4.8 | 0.00 | 0.00 | 0.00 | 74 | 1016.9 |
| 20260905030503 | 16 | 297 | 0.0 | 3.2 | 0.00 | 0.00 | 0.00 | 74 | 1016.2 |
| 20260905030007 | 16 | 297 | 0.0 | 3.2 | 0.00 | 0.00 | 0.00 | 74 | 1016.0 |
| 20260905025505 | 16 | 297 | 1.6 | 3.2 | 0.00 | 0.00 | 0.00 | 74 | 1016.1 |
| 20260905025009 | 16 | 228 | 0.0 | 1.6 | 0.00 | 0.00 | 0.00 | 75 | 1016.0 |
| 20260905024503 | 16 | 228 | 0.0 | 1.6 | 0.00 | 0.00 | 0.00 | 73 | 1016.1 |
| 20260905024003 | 16 | 324 | 1.6 | 3.2 | 0.00 | 0.00 | 0.00 | 73 | 1015.9 |
| 20260905023503 | 16 | 319 | 0.0 | 1.6 | 0.00 | 0.00 | 0.00 | 76 | 1015.7 |
| 20260905023007 | 17 | 319 | 0.0 | 1.6 | 0.00 | 0.00 | 0.00 | 74 | 1015.7 |
| 20260905022502 | 17 | 319 | 1.6 | 1.6 | 0.00 | 0.00 | 0.00 | 74 | 1015.7 |
| 20260905022004 | 17 | 319 | 0.0 | 3.2 | 0.00 | 0.00 | 0.00 | 70 | 1015.6 |
| 20260905021503 | 17 | 320 | 0.0 | 1.6 | 0.00 | 0.00 | 0.00 | 70 | 1015.9 |
| 20260905021002 | 17 | 265 | 0.0 | 11.3 | 0.00 | 0.00 | 0.00 | 69 | 1015.2 |
| 20260905020503 | 17 | 1 | 0.0 | 3.2 | 0.00 | 0.00 | 0.00 | 69 | 1015.2 |
| 20260905020003 | 17 | 355 | 9.7 | 14.5 | 0.00 | 0.00 | 0.00 | 68 | 1014.9 |
| 20260905015503 | 17 | 352 | 3.2 | 4.8 | 0.00 | 0.00 | 0.00 | 69 | 1015.0 |
| 20260905015008 | 17 | 18 | 1.6 | 4.8 | 0.00 | 0.00 | 0.00 | 70 | 1015.2 |
| 20260905014503 | 17 | 348 | 3.2 | 12.9 | 0.00 | 0.00 | 0.00 | 70 | 1014.9 |
| 20260905014007 | 17 | 3 | 0.0 | 11.3 | 0.00 | 0.00 | 0.00 | 70 | 1014.9 |
| 20260905013502 | 17 | 4 | 14.5 | 17.7 | 0.00 | 0.00 | 0.00 | 70 | 1014.8 |
| 20260905013002 | 17 | 348 | 1.6 | 20.9 | 0.00 | 0.00 | 0.00 | 71 | 1014.8 |
| 20260905012508 | 18 | 333 | 9.7 | 22.5 | 0.00 | 0.00 | 0.00 | 71 | 1014.7 |
| 20260905012005 | 18 | 0 | 12.9 | 25.7 | 0.00 | 0.00 | 0.00 | 71 | 1014.6 |
| 20260905011503 | 18 | 12 | 17.7 | 27.4 | 0.00 | 0.00 | 0.00 | 71 | 1014.4 |
| 20260905011003 | 18 | 349 | 17.7 | 27.4 | 0.00 | 0.00 | 0.00 | 72 | 1014.3 |
| 20260905010505 | 18 | 6 | 22.5 | 37.0 | 0.00 | 0.00 | 0.00 | 72 | 1014.1 |
| 20260905010003 | 18 | 336 | 16.1 | 33.8 | 0.00 | 0.00 | 0.00 | 72 | 1014.0 |
| 20260905005510 | 19 | 350 | 22.5 | 32.2 | 0.00 | 0.00 | 0.00 | 71 | 1013.6 |
| 20260905005004 | 20 | 350 | 27.4 | 35.4 | 0.00 | 0.00 | 0.00 | 68 | 1013.3 |
| 20260905004510 | 22 | 324 | 14.5 | 14.5 | 0.00 | 0.00 | 0.00 | 64 | 1012.4 |
| 20260905004004 | 21 | 281 | 0.0 | 9.7 | 0.00 | 0.00 | 0.00 | 64 | 1012.1 |
| 20260905003504 | 21 | 316 | 1.6 | 4.8 | 0.00 | 0.00 | 0.00 | 65 | 1012.1 |
| 20260905003006 | 21 | 239 | 1.6 | 6.4 | 0.00 | 0.00 | 0.00 | 66 | 1012.1 |
| 20260905002508 | 20 | 192 | 0.0 | 1.6 | 0.00 | 0.00 | 0.00 | 66 | 1012.1 |
| 20260905002005 | 20 | 192 | 0.0 | 0.0 | 0.00 | 0.00 | 0.00 | 68 | 1012.2 |
| 20260905001505 | 19 | 192 | 0.0 | 0.0 | 0.00 | 0.00 | 0.00 | 69 | 1012.2 |
| 20260905001003 | 18 | 192 | 0.0 | 0.0 | 0.00 | 0.00 | 0.00 | 72 | 1012.3 |
| 20260905000504 | 18 | 192 | 0.0 | 0.0 | 0.00 | 0.00 | 0.00 | 73 | 1012.2 |
| 20260905000003 | 18 | 192 | 0.0 | 0.0 | 0.00 | 0.00 | 0.00 | 74 | 1012.2 |
| 20260904235503 | 18 | 192 | 0.0 | 0.0 | 0.00 | 0.00 | 0.00 | 75 | 1012.2 |
| 20260904234503 | 18 | 192 | 0.0 | 0.0 | 0.00 | 0.00 | 0.00 | 75 | 1012.1 |
| 20260904234007 | 18 | 192 | 0.0 | 0.0 | 0.00 | 0.00 | 0.00 | 75 | 1012.1 |
| 20260904233505 | 18 | 192 | 0.0 | 0.0 | 0.00 | 0.00 | 0.00 | 75 | 1012.1 |
| 20260904233005 | 18 | 192 | 0.0 | 0.0 | 0.00 | 0.00 | 0.00 | 75 | 1012.0 |
| 20260904232507 | 18 | 192 | 0.0 | 0.0 | 0.00 | 0.00 | 0.00 | 74 | 1011.9 |
| 20260904232006 | 19 | 192 | 0.0 | 0.0 | 0.00 | 0.00 | 0.00 | 73 | 1011.8 |
| 20260904231503 | 19 | 192 | 0.0 | 0.0 | 0.00 | 0.00 | 0.00 | 73 | 1011.8 |
| 20260904231004 | 19 | 192 | 0.0 | 0.0 | 0.00 | 0.00 | 0.00 | 73 | 1011.8 |
| 20260904230504 | 19 | 192 | 0.0 | 0.0 | 0.00 | 0.00 | 0.00 | 72 | 1011.7 |
| 20260904230003 | 19 | 192 | 0.0 | 0.0 | 0.00 | 0.00 | 0.00 | 71 | 1011.5 |
| 20260904225504 | 19 | 192 | 0.0 | 0.0 | 0.00 | 0.00 | 0.00 | 71 | 1011.6 |
| 20260904225008 | 19 | 192 | 0.0 | 0.0 | 0.00 | 0.00 | 0.00 | 71 | 1011.6 |
| 20260904224505 | 20 | 192 | 0.0 | 0.0 | 0.00 | 0.00 | 0.00 | 70 | 1011.5 |
| 20260904224009 | 20 | 192 | 0.0 | 0.0 | 0.00 | 0.00 | 0.00 | 70 | 1011.4 |